Find Xingwang Jishu Shiyan W.

NORAD ID: 58425 Int'l Des: 2023-181 Owner: ZXW Country: CN Constellation: xingwang operational
LEOCIRCULAR

Live Position

Loading 3D Globe...

About Xingwang Jishu Shiyan W.

Description loading...

Upcoming Passes

Passes for default location (London). Set your location on the main map for personalized predictions.

Altitude History

Loading altitude history...

Two-Line Element Set

1 58425U 23181A 26106.30209014 -.00000063 00000-0 11691-3 0 9994
2 58425 49.9578 193.6532 0013174 81.1467 279.0901 13.41491237117440
Epoch: Apr 16, 2026 • Age: 13 hours

Current Status

Altitude 1101.9 km
Velocity 7.30 km/s
Sub-Earth Point 12.66°N, 152.83°W
Launch Date Nov 23, 2023
Age 2.3 years
Type internet

Technical Details

Classification Payload
Mass 300.00 kg
Dry Mass 300.00 kg
Total Mass 300.00 kg
Length 2.50 m
Diameter 0.80 m
Span 2.50 m
Shape Box + 2 Pan
Manufacturer SAST
Phase Status In Orbit
Owner/State ZXW/CN

Most Searched